Ketchikan, AK

5:15 PM AKDT on September 24, 2018 (GMT -0800)
Ketchikan International

Weather History for PAKT - December, 2017

Change the Weather History Date:

Thursday, December 7, 2017

  Actual Average Record
Temperature  
Mean Temperature 41 °F -  
Max Temperature 46 °F 41 °F 53 °F (2014)
Min Temperature 36 °F 31 °F 8 °F (1977)
Degree Days  
Heating Degree Days 24    
Moisture  
Dew Point 35 °F    
Average Humidity 84    
Maximum Humidity 93    
Minimum Humidity 58    
Precipitation  
Precipitation 0.00 in - - ()
Sea Level Pressure  
Sea Level Pressure 30.33 in    
Wind  
Wind Speed 10 mph (SE)    
Max Wind Speed 14 mph    
Max Gust Speed -    
Visibility 10 miles    
Events      
Averages and records for this station are not official NWS values.
T = Trace of Precipitation, MM = Missing Value Source: NWS Daily Summary

Daily Weather History Graph

Daily Weather History Graph

Search for Another Location

Airport or City:

Astronomy

Dec. 07, 2017 Rise Set
Actual Time 7:59 AM AKST 3:17 PM AKST
Civil Twilight 7:14 AM AKST 4:02 PM AKST
Nautical Twilight 6:26 AM AKST 4:50 PM AKST
Astronomical Twilight 5:41 AM AKST 5:34 PM AKST
Moon 8:34 PM AKST (12/7) 11:24 AM AKST (12/7)
Length of Visible Light 8h 48m
Length of Day
7h 17m
Waning Gibbous, 76% of the Moon is Illuminated
Dec 7
Waning Gibbous
Dec 9
Last Quarter
Dec 17
New
Dec 26
First Quarter
Jan 1
Full

Hourly Weather History & Observations

Time (AKST) Temp. Windchill Dew Point Humidity Pressure Visibility Wind Dir Wind Speed Gust Speed Precip Events Conditions
12:53 AM 37.0 °F 30.4 °F 35.1 °F 93% 30.43 in 10.0 mi SE 9.2 mph - N/A   Clear
1:53 AM 37.0 °F 31.0 °F 35.1 °F 93% 30.43 in 10.0 mi SE 8.1 mph - N/A   Clear
2:53 AM 37.9 °F 30.9 °F 36.0 °F 93% 30.42 in 10.0 mi SE 10.4 mph - N/A   Clear
3:53 AM 37.0 °F 30.4 °F 35.1 °F 93% 30.42 in 10.0 mi SE 9.2 mph - N/A   Clear
4:53 AM 37.0 °F 29.8 °F 35.1 °F 93% 30.40 in 10.0 mi SE 10.4 mph - N/A   Clear
5:53 AM 36.0 °F 29.0 °F 34.0 °F 93% 30.40 in 10.0 mi SE 9.2 mph - N/A   Clear
6:00 AM 36.0 °F 28.0 °F 34.0 °F 93% 30.39 in 10.0 mi SE 11.5 mph - N/A   Clear
6:53 AM 36.0 °F 28.5 °F 34.0 °F 93% 30.38 in 10.0 mi SE 10.4 mph - N/A   Clear
7:53 AM 37.4 °F 30.3 °F 33.8 °F 87% 30.38 in 10.0 mi SE 10.4 mph - N/A   Clear
8:53 AM 37.4 °F 29.8 °F 35.6 °F 93% 30.36 in 10.0 mi SE 11.5 mph - N/A   Clear
9:53 AM 39.2 °F 32.5 °F 35.6 °F 87% 30.36 in 10.0 mi ESE 10.4 mph - N/A   Clear
10:53 AM 42.8 °F 35.8 °F 37.4 °F 81% 30.35 in 10.0 mi ESE 13.8 mph - N/A   Clear
11:53 AM 44.6 °F 38.8 °F 37.4 °F 76% 30.33 in 10.0 mi ESE 11.5 mph - N/A   Clear
12:53 PM 42.8 °F 36.6 °F 37.4 °F 81% 30.32 in 10.0 mi SE 11.5 mph - N/A   Clear
1:53 PM 44.1 °F 39.0 °F 37.0 °F 76% 30.31 in 10.0 mi SE 9.2 mph - N/A   Clear
2:53 PM 39.9 °F 34.5 °F 36.0 °F 86% 30.30 in 10.0 mi ESE 8.1 mph - N/A   Clear
3:53 PM 42.1 °F 36.1 °F 37.0 °F 82% 30.30 in 10.0 mi SE 10.4 mph - N/A   Clear
4:53 PM 41.0 °F 34.7 °F 36.0 °F 82% 30.28 in 10.0 mi SE 10.4 mph - N/A   Clear
5:53 PM 39.9 °F 33.9 °F 35.1 °F 83% 30.28 in 10.0 mi SE 9.2 mph - N/A   Clear
6:53 PM 42.1 °F 36.1 °F 35.1 °F 76% 30.25 in 10.0 mi ESE 10.4 mph - N/A   Clear
7:53 PM 46.0 °F 41.9 °F 32.0 °F 58% 30.25 in 10.0 mi SE 8.1 mph - N/A   Clear
8:53 PM 42.1 °F 35.7 °F 35.1 °F 76% 30.24 in 10.0 mi SE 11.5 mph - N/A   Clear
9:53 PM 39.9 °F 33.4 °F 35.1 °F 83% 30.25 in 10.0 mi ESE 10.4 mph - N/A   Clear
10:53 PM 41.0 °F 34.7 °F 35.1 °F 79% 30.23 in 10.0 mi ESE 10.4 mph - N/A   Clear
11:53 PM 42.1 °F 36.1 °F 34.0 °F 73% 30.24 in 10.0 mi ESE 10.4 mph - N/A   Clear